Terminal Aerodrome Forecast
Issued by NWS Wilmington, OH

Current Version | Previous Version | Graphics & Text | Print | Product List | Glossary On
Versions: 1 2 3 4 5 6 7 8 9 10 11 12 13 14 15 16 17 18 19 20 21 22 23 24 25 26 27 28 29 30
319
FTUS41 KILN 011731
TAFCVG
TAF
KCVG 011731Z 0118/0224 25012G20KT P6SM BKN040
     FM020000 26008KT P6SM BKN035
     FM021500 27012KT P6SM BKN035=

USA.gov is the U.S. government's official web portal to all federal, state and local government web resources and services.